Alexandria, VA (22301)

7:24 PM EDT on September 04, 2015 (GMT -0400)
Rosemont - Braddock Heights | | Change Station
CLOSE
Current Station
Personal Weather Station
Location: Alexandria, VA
Elevation: 33 ft
Nearby Weather Stations

Elev 33 ft 38.82 °N, 77.06 °W | Updated 3 minutes ago

Overcast
Overcast
84.4 °F
Feels Like 92 °F
N
0.0
Wind Variable Wind from West
Gusts 0.0 mph

Today
High -- | Low -- °F
--% Chance of Precip.
Yesterday
High -- | Low -- °F
Precip. -- in
6:39 AM 7:34 PM
Waning Gibbous, 55% visible
Pressure 30.04 in
Visibility 9.0 miles
Clouds Mostly Cloudy 5500 ft
Overcast 25000 ft
Heat Index 92 °F
Dew Point 74 °F
Humidity 72%
Rainfall 0.00 in
Snow Depth Not available.
UV 0 out of 12
Pollen 8.30 out of 12
Air Quality Not available.
Flu Activity Not available.
METAR KDCA 042252Z 14005KT 9SM BKN055 OVC250 29/22 A3004 RMK AO2 SLP173 T02940217
Pressure 30.04 in
Visibility 9.0 miles
Clouds Mostly Cloudy 5500 ft
Overcast 25000 ft
Heat Index 92 °F
Dew Point 74 °F
Humidity 72%
Rainfall 0.00 in
Snow Depth Not available.
UV 0 out of 12
Pollen 8.30 out of 12
Air Quality Not available.
Flu Activity Not available.
METAR KDCA 042252Z 14005KT 9SM BKN055 OVC250 29/22 A3004 RMK AO2 SLP173 T02940217

10-Day Weather Forecast

×

Almanac

Astronomy

Sep. 04, 2015 Rise Set
Actual Time
Civil Twilight
Nautical Twilight
Astronomical Twilight
Moon
Length of Visible Light
Length of Day
Tomorrow will be .
, % of the Moon is Illuminated

Today's Extremes

State Highs State Lows

Community

WunderPhotos

Upload Photos

1,852,332 photos uploaded!

WunderBlogs® & News

Nearby

Air Quality

  Air Quality AQ Index Pollutant
Not available.

Snow Depth

Station Depth Elevation

Earthquake Activity

City Distance Mag. Time & Date
Minimum magnitude displayed is 2.5.

Coastal Water Temperatures

Place Temperature

Stations

Nearby Weather Stations

Station Location Temp. Windchill Dew Point Humidity Wind Precip. Elev Updated Type